Regional Weather Roundup
Issued by NWS

Home | Current Version | Previous Version | Text Only | Print | Product List | Glossary On
Versions: 1 2 3 4 5 6 7 8 9 10 11 12 13 14 15 16 17 18 19 20 21 22 23 24 25 26 27 28 29 30 31 32 33 34 35 36 37 38 39 40 41 42 43 44 45 46 47 48 49 50
000
ASUS43 KMPX 030910
RWRMN
WEATHER ROUNDUP FOR MINNESOTA
NATIONAL WEATHER SERVICE TWIN CITIES/CHANHASSEN MN
400 AM CDT SUN MAY 03 2015


NOTE: "FAIR" INDICATES FEW OR NO CLOUDS BELOW 12,000 FEET WITH NO
SIGNIFICANT WEATHER AND/OR OBSTRUCTIONS TO VISIBILITY. N/A MEANS
CURRENT SKY AND/OR WEATHER CONDITIONS ARE NOT AVAILABLE.

MNZ060>063-068>070-031000-
   Twin Cities Metro

CITY           SKY/WX    TMP DP  RH WIND       PRES   REMARKS
TWIN CITIES    PTCLDY    60  51  72 S7        29.77R
ST PAUL        CLEAR     58  50  75 S5        29.78R
CRYSTAL        CLEAR     61  51  70 SW6       29.77R
BLAINE         PTCLDY    63  54  72 SW7       29.78R
LAKEVILLE      CLEAR     55  50  82 S9        29.76F
EDEN PRAIRIE   CLEAR     59  50  72 S7        29.76R
SOUTH ST PAUL  CLEAR     59  49  71 S5        29.77S
LAKE ELMO      FAIR      57  50  77 S6        29.79R
$$
MNZ001>005-007-008-013>017-022>024-027-028-031000-
   Northwest Minnesota

CITY           SKY/WX    TMP DP  RH WIND       PRES   REMARKS
BEMIDJI        CLEAR     57  46  66 W7        29.66R
HALLOCK        PTCLDY    46  37  71 NW3       29.67S
ROSEAU         CLEAR     50  41  71 NW7       29.66R
WARROAD        CLEAR     50  43  76 NW6       29.65R
THIEF RVR FALL PTCLDY    52  45  76 CALM      29.66R
CROOKSTON      PTCLDY    46  43  87 N5        29.68R
DETROIT LAKES  CLEAR     57  50  77 S6        29.68R
MOORHEAD       CLEAR     55  48  76 SW6       29.67R
PARK RAPIDS    PTCLDY    60  49  66 S10       29.66S
MAHNOMEN       FAIR      51  46  81 SW5       29.67R
$$
MNZ006-009>011-018-025>026-031000-
   North Central Minnesota

CITY           SKY/WX    TMP DP  RH WIND       PRES   REMARKS
BAUDETTE       CLEAR     49  46  90 CALM      29.62S
FLAG ISLAND    CLEAR     54  46  76 NW8       29.63R
INTL FALLS     PTCLDY    49  44  83 CALM      29.63R
WASKISH        CLEAR     55  48  76 CALM      29.65R
BIG FORK       CLEAR     52  43  71 SW3       29.65R
LONGVILLE      MOCLDY    64  48  55 SW9G18    29.66R
GRAND RAPIDS   MOCLDY    61  43  51 S5        29.65F
CRANE LAKE     CLOUDY    57  45  62 N3        29.65R
ORR            MOCLDY    63  43  48 CALM      29.60R
COOK           MOCLDY    63  45  51 S5        29.64R
WALKER         FAIR      62  48  60 SW13G18   29.64S
$$
MNZ012-019>021-037-031000-
   Northeast Minnesota

CITY           SKY/WX    TMP DP  RH WIND       PRES   REMARKS
DULUTH         CLOUDY    60  47  61 SW13      29.71R
ELY            RAIN      57  43  58 S8        29.67R
HIBBING        MOCLDY    57  41  55 S5        29.66R
EVELETH        MOCLDY    57  45  62 S7        29.68R
DULUTH HARBOR    N/A     43  39  87 NW3       29.72R
TWO HARBORS    CLOUDY    50  45  81 CALM      29.67S
SILVER BAY     CLOUDY    45  41  87 CALM      29.67S
GRAND MARAIS     N/A     43  39  86 NE3       29.68F
G MARAIS ARPRT MOCLDY    46  36  66 CALM      29.70R
$$
MNZ029>031-032-039>041-046>048-054>057-064-031000-
   West Central Minnesota

CITY           SKY/WX    TMP DP  RH WIND       PRES   REMARKS
FERGUS FALLS   PTCLDY    55  52  88 S8        29.68S
WHEATON        PTCLDY    61  52  72 S13       29.70S
MORRIS         CLOUDY    63  55  77 SE9       29.71S
ALEXANDRIA     CLOUDY    62  52  69 S13       29.71F
ELBOW LAKE     FAIR      57  52  84 S12       29.68S
WADENA         PTCLDY    55  50  82 S7        29.67F
GLENWOOD       CLOUDY    61  55  82 SE12G18   29.71S
APPLETON         N/A     61  52  72 CALM      29.71R
BENSON         CLOUDY    63  52  67 S8        29.73R
ORTONVILLE     PTCLDY    57  50  77 SE3       29.70S
MADISON        MOCLDY    59  50  72 SE6       29.70R
WILLMAR        FAIR      61  54  77 E6        29.74F
$$
MNZ033>034-036-042>043-049>051-058-059-031000-
   Central Minnesota

CITY           SKY/WX    TMP DP  RH WIND       PRES   REMARKS
ST CLOUD       CLOUDY    61  53  75 S9        29.75S
SAUK CENTRE    LGT RAIN  59  54  83 SE6       29.72R
PAYNESVILLE    CLOUDY    58  52  79 E7        29.75F
AITKIN         MIX PCPN  61  52  72 S9        29.68F
PINE RIVER     MOCLDY    61  52  72 S6        29.71F
BRAINERD       CLOUDY    57  53  86 SE7       29.70F
STAPLES        CLOUDY    55  52  88 S9        29.68F
LONG PRAIRIE   MOCLDY    59  52  77 SE7       29.71F
LITTLE FALLS   CLOUDY    61  48  63 SE9       29.73F
LITCHFIELD     MOCLDY    57  54  88 CALM      29.77F
BUFFALO        PTCLDY    58  51  75 S3        29.79S
MAPLE LAKE     MOCLDY    60  53  77 CALM      29.78F
$$
MNZ037-044-045-052-053-031000-
   East Central Minnesota

CITY           SKY/WX    TMP DP  RH WIND       PRES   REMARKS
PRINCETON      MOCLDY    63  54  72 S10       29.76F
MORA           CLOUDY    61  50  67 S15       29.75S
CAMBRIDGE      MOCLDY    64  52  63 S6        29.76R
RUSH CITY      PTCLDY    62  52  70 S7        29.77R
MOOSE LAKE     LGT RAIN  61  54  77 SW12      29.73R
HINCKLEY       CLOUDY    63  54  72 S13       29.74R
CLOQUET        LGT RAIN  57  46  67 S5        29.71R
MCGREGOR       CLOUDY    61  52  72 SW15G30   29.74R
$$
MNZ071>073-080-081-089-090-097-098-031000-
   Southwest Minnesota

CITY           SKY/WX    TMP DP  RH WIND       PRES   REMARKS
MONTEVIDEO     MOCLDY    61  54  77 S8        29.71S
GRANITE FALLS  MOCLDY    58  51  78 SE9       29.72F
CANBY          MOCLDY    64  53  69 E7        29.71S
MARSHALL       CLOUDY    61  48  63 S13       29.70F
REDWOOD FALLS  CLOUDY    55  50  83 SE8       29.73F
OLIVIA         MOCLDY    54  46  76 SE9       29.72F
PIPESTONE      CLOUDY    57  52  82 S8        29.69F
WINDOM         CLOUDY    55  52  88 SE2       29.73F
WORTHINGTON    CLOUDY    55  48  76 S12       29.72S
JACKSON        CLOUDY    55  50  82 SE9       29.74F
TRACY          CLOUDY    60  52  76 N5        29.73R
SLAYTON        CLOUDY    55  52  89 CALM      29.73S
$$
MNZ065>067-074>077-082>085-091>093-031000-
   South Central Minnesota

CITY           SKY/WX    TMP DP  RH WIND       PRES   REMARKS
MANKATO        CLEAR     55  46  71 S13       29.75F
NEW ULM        MOCLDY    55  52  88 S6        29.75R
ST JAMES       CLOUDY    55  50  82 SE10      29.75S
FAIRMONT       CLOUDY    54  46  76 S9        29.75F
GLENCOE        PTCLDY    58  53  82 S7        29.76R
FARIBAULT      CLEAR     57  50  77 S9        29.77F
OWATONNA       PTCLDY    57  48  72 SE16      29.77F
WASECA         PTCLDY    54  48  82 SE9       29.78F
ALBERT LEA     MOCLDY    55  50  82 S10       29.79F
$$
MNZ078>079-086>088-094>096-031000-
   Southeast Minnesota

CITY           SKY/WX    TMP DP  RH WIND       PRES   REMARKS
ROCHESTER      PTCLDY    54  49  83 S12       29.82F
RED WING       CLEAR     59  48  67 S6        29.79S
STANTON        CLEAR     57  49  74 S9        29.77S
DODGE CENTER   PTCLDY    55  50  82 S13       29.80F
WINONA         PTCLDY    59  50  72 SE3       29.83F
AUSTIN         MOCLDY    55  48  76 S7        29.80F
PRESTON        PTCLDY    55  49  80 S12       29.83F
$$
ABBREVIATIONS USED IN REMARKS
   TC - TEMPERATURES IN CELSIUS
  WCI - WIND CHILL INDEX
   HX - HEAT INDEX
  VSB - VISIBILITY
$$



USA.gov is the U.S. government's official web portal to all federal, state and local government web resources and services.